Regional Weather Roundup
Issued by NWS State College, PA

Home | Current Version | Previous Version | Text Only | Print | Product List | Glossary Off
Versions: 1 2 3 4 5 6 7 8 9 10 11 12 13 14 15 16 17 18 19 20 21 22 23 24 25 26 27 28 29 30 31 32 33 34 35 36 37 38 39 40 41 42 43 44 45 46 47 48 49 50

000
ASUS41 KCTP 190803
RWRCTP

REGIONAL WEATHER ROUNDUP
NATIONAL WEATHER SERVICE STATE COLLEGE PA
300 AM EST THU JAN 19 2017

Note: "fair" indicates few or no clouds below 12,000 feet with no
significant weather and/or obstructions to visibility.

* = STATION THAT DOES NOT REPORT PRECIPITATION /E.G. RAIN...SNOW...ETC/
    THUNDER OR FOG.

PAZ002>004-007>009-013>016-020>023-029>032-190900-
WESTERN PENNSYLVANIA

CITY           SKY/WX    TMP DP  RH WIND       PRES   REMARKS
ERIE           CLOUDY    35  34  96 W7        30.07S FOG
MEADVILLE      CLOUDY    35  33  92 SW6       30.05S
FRANKLIN*        N/A     36  32  87 SW7       30.07S
NEW CASTLE     CLOUDY    37  35  92 SW6       30.09S
BEAVER COUNTY  NOT AVBL
BUTLER*        CLOUDY    36  34  93 W7        30.11R
PITTSBURGH INT CLOUDY    37  36  96 W6        30.09S
PITTSBURGH     CLOUDY    37  33  85 SW9       30.09R
INDIANA*       CLOUDY    37  36  93 VRB7      30.11R
LATROBE        CLOUDY    37  37 100 SW8       30.11R
WASHINGTON CO* CLOUDY    37  34  87 SW3       30.11R
$$

PAZ004>006-010>012-017>019-024>028-033>037-041-042-045-046-049>053-190900-
CENTRAL PENNSYLVANIA

CITY           SKY/WX    TMP DP  RH WIND       PRES   REMARKS
BRADFORD       CLOUDY    34  33  96 W6        30.01S
DUBOIS         CLOUDY    35  32  88 W13       30.03S
CLEARFIELD     CLOUDY    37  34  89 W8        30.05S
JOHNSTOWN      FOG       34  34 100 W10       30.03R VSB 3/4
ALTOONA        CLOUDY    39  34  82 W9        30.07R
STATE COLLEGE  CLOUDY    37  34  87 W7        30.05F
WILLIAMSPORT   CLOUDY    40  35  83 W7        30.05R
SELINSGROVE    CLOUDY    41  37  86 CALM      30.06S
FT INDIANTOWN  CLOUDY    41  40  97 NW9G18    30.05R
CAPITAL CITY   CLOUDY    44  34  67 W5        30.07R
HARRISBURG     CLOUDY    42  36  79 NW6       30.06R
YORK           CLOUDY    41  37  86 W3        30.06S
$$

PAZ038>040-043-044-047-048-054-055-060>062-067>071-190900-
EASTERN PENNSYLVANIA

CITY           SKY/WX    TMP DP  RH WIND       PRES   REMARKS
SCRANTON       CLOUDY    38  37  97 SW5       30.02R
MOUNT POCONO   CLOUDY    34  32  92 W8        29.97S
ALLENTOWN      CLOUDY    40  35  83 W5        30.04R
QUAKERTOWN*    CLOUDY    41  36  81 W3        30.04R
READING        CLOUDY    42  35  76 W3        30.05R
LANCASTER      CLOUDY    42  38  85 NW5       30.06R
COATESVILLE    CLOUDY    43  37  81 NW9       30.06R
POTTSTOWN      CLOUDY    41  36  82 NW3       30.06R
BLUE BELL      CLOUDY    41  37  87 CALM      30.03R
DOYLESTOWN     CLOUDY    43  39  86 W3        30.03S
WILLOW GROVE   NOT AVBL
NORTH PHILA    CLOUDY    44  39  82 CALM      30.06R
PHILADELPHIA   CLOUDY    45  38  76 W3        30.05S
$$




USA.gov is the U.S. government's official web portal to all federal, state and local government web resources and services.